User: anonymous   Login
Location: Columbia
(38.9520°N, 92.3340°W)
Time: 18:24:13
(UTC-05:00)
Language:

SJ-11-01 - Orbit

View from above orbital plane
View from above orbital plane
View from above satellite
View from above satellite

Ground track
Ground track

The orbit data is extracted from the following two-line orbital elements,

1 36088U 09061A   17141.87022707 +.00000048 +00000-0 +19604-4 0  9994
2 36088 098.1386 190.1448 0011409 356.2417 003.8687 14.59939857400806
Epoch (UTC): 21 May 2017 20:53:07
Eccentricity: 0.0011409
inclination: 98.1386°
perigee height: 685 km
apogee height: 701 km
right ascension of ascending node: 190.1448°
argument of perigee: 356.2417°
revolutions per day: 14.59939857
mean anomaly at epoch: 3.8687°
orbit number at epoch: 40080

The dashed part of the orbit path shows where the satellite is in the earth's shadow,  

DLR